LVX452 SAFR-SARI

Flight info

Callsign LVX452
Flight time 3h 39m
Altitude 9000
Route DCT GEGUS DCT POS B687 ALDOS DCT
Aircraft RV10/L-SDGRY/S

Departure

Time 2026-04-14 12:25
Airport Rafaela Airport (SAFR)

Arrival

Time 2026-04-14 16:05
Airport Cataratas Del Iguazú International Airport (SARI)
Time Latitude Longitude Altitude Speed Heading
2026-04-14 12:13 -31.27853 -61.51091 334 ft 0 kts 13°
2026-04-14 12:19 -31.27850 -61.51050 333 ft 13 kts 70°
2026-04-14 12:19 -31.27849 -61.50933 336 ft 16 kts 94°
2026-04-14 12:19 -31.27884 -61.50860 338 ft 11 kts 176°
2026-04-14 12:20 -31.28021 -61.50875 336 ft 25 kts 191°
2026-04-14 12:20 -31.28176 -61.50903 338 ft 19 kts 189°
2026-04-14 12:20 -31.28299 -61.50927 346 ft 19 kts 190°
2026-04-14 12:20 -31.28430 -61.50968 344 ft 13 kts 206°
2026-04-14 12:21 -31.28458 -61.50981 344 ft 0 kts 213°
2026-04-14 12:24 -31.28464 -61.50986 344 ft 7 kts 204°
2026-04-14 12:24 -31.28537 -61.51069 344 ft 16 kts 233°
2026-04-14 12:24 -31.28540 -61.51061 350 ft 7 kts 51°
2026-04-14 12:24 -31.28406 -61.50851 350 ft 64 kts 54°
2026-04-14 12:25 -31.28094 -61.50364 506 ft 77 kts 55°
2026-04-14 12:25 -31.27763 -61.49892 760 ft 75 kts 49°
2026-04-14 12:25 -31.27417 -61.49452 1112 ft 69 kts 47°
2026-04-14 12:25 -31.27102 -61.49031 1421 ft 72 kts 47°
2026-04-14 12:26 -31.26798 -61.48559 1776 ft 75 kts 49°
2026-04-14 12:26 -31.26463 -61.48048 2096 ft 78 kts 47°
2026-04-14 12:26 -31.26108 -61.47542 2390 ft 86 kts 51°
2026-04-14 12:26 -31.25752 -61.46935 2631 ft 94 kts 50°
2026-04-14 12:27 -31.25366 -61.46292 2885 ft 99 kts 50°
2026-04-14 12:27 -31.24969 -61.45619 3133 ft 101 kts 50°
2026-04-14 12:27 -31.24570 -61.44935 3378 ft 102 kts 50°
2026-04-14 12:27 -31.24183 -61.44236 3621 ft 103 kts 51°
2026-04-14 12:28 -31.23799 -61.43534 3865 ft 102 kts 51°
2026-04-14 12:28 -31.23415 -61.42832 4112 ft 103 kts 51°
2026-04-14 12:28 -31.23032 -61.42129 4356 ft 102 kts 51°
2026-04-14 12:28 -31.22659 -61.41434 4603 ft 100 kts 51°
2026-04-14 12:29 -31.22306 -61.40754 4840 ft 96 kts 51°
2026-04-14 12:29 -31.21968 -61.40093 5069 ft 93 kts 51°
2026-04-14 12:29 -31.21650 -61.39463 5300 ft 90 kts 51°
2026-04-14 12:29 -31.21338 -61.38835 5537 ft 87 kts 51°
2026-04-14 12:30 -31.21048 -61.38236 5772 ft 83 kts 51°
2026-04-14 12:30 -31.20780 -61.37662 6005 ft 78 kts 51°
2026-04-14 12:30 -31.20530 -61.37118 6243 ft 74 kts 51°
2026-04-14 12:30 -31.20300 -61.36607 6447 ft 71 kts 51°
2026-04-14 12:31 -31.20062 -61.36087 6557 ft 76 kts 51°
2026-04-14 12:31 -31.19803 -61.35534 6676 ft 79 kts 51°
2026-04-14 12:31 -31.19536 -61.34969 6801 ft 80 kts 51°
2026-04-14 12:31 -31.19260 -61.34396 6920 ft 82 kts 51°
2026-04-14 12:32 -31.18978 -61.33818 7038 ft 82 kts 51°
2026-04-14 12:32 -31.18697 -61.33238 7158 ft 82 kts 51°
2026-04-14 12:32 -31.18421 -61.32662 7275 ft 81 kts 51°
2026-04-14 12:32 -31.18150 -61.32094 7391 ft 79 kts 51°
2026-04-14 12:33 -31.17887 -61.31542 7504 ft 76 kts 51°
2026-04-14 12:33 -31.17639 -61.31017 7613 ft 72 kts 51°
2026-04-14 12:33 -31.17403 -61.30509 7703 ft 72 kts 51°
2026-04-14 12:33 -31.17162 -61.29990 7772 ft 73 kts 51°
2026-04-14 12:34 -31.16918 -61.29468 7845 ft 73 kts 51°
2026-04-14 12:34 -31.16672 -61.28943 7922 ft 74 kts 51°
2026-04-14 12:34 -31.16430 -61.28426 7993 ft 73 kts 51°
2026-04-14 12:34 -31.16150 -61.27947 8062 ft 71 kts 45°
2026-04-14 12:35 -31.15859 -61.27494 8129 ft 69 kts 44°
2026-04-14 12:35 -31.15575 -61.27050 8195 ft 67 kts 44°
2026-04-14 12:35 -31.15299 -61.26614 8267 ft 66 kts 44°
2026-04-14 12:35 -31.15029 -61.26187 8334 ft 65 kts 44°
2026-04-14 12:36 -31.14768 -61.25769 8400 ft 63 kts 44°
2026-04-14 12:36 -31.14514 -61.25362 8466 ft 61 kts 44°
2026-04-14 12:36 -31.14259 -61.24980 8540 ft 58 kts 40°
2026-04-14 12:36 -31.14007 -61.24627 8594 ft 55 kts 40°
2026-04-14 12:37 -31.13773 -61.24300 8625 ft 53 kts 39°
2026-04-14 12:37 -31.13483 -61.23957 8584 ft 64 kts 38°
2026-04-14 12:37 -31.13178 -61.23556 8616 ft 66 kts 40°
2026-04-14 12:37 -31.12910 -61.23149 8695 ft 63 kts 43°
2026-04-14 12:38 -31.12395 -61.22380 8780 ft 58 kts 42°
2026-04-14 12:38 -31.12140 -61.22008 8783 ft 60 kts 42°
2026-04-14 12:38 -31.11876 -61.21624 8791 ft 59 kts 42°
2026-04-14 12:39 -31.11630 -61.21268 8779 ft 57 kts 41°
2026-04-14 12:39 -31.11369 -61.20894 8785 ft 62 kts 42°
2026-04-14 12:39 -31.11082 -61.20483 8803 ft 68 kts 43°
2026-04-14 12:39 -31.10771 -61.20038 8826 ft 73 kts 43°
2026-04-14 12:40 -31.10441 -61.19567 8843 ft 77 kts 43°
2026-04-14 12:40 -31.10097 -61.19075 8861 ft 80 kts 44°
2026-04-14 12:40 -31.09740 -61.18566 8872 ft 82 kts 44°
2026-04-14 12:40 -31.09374 -61.18043 8878 ft 84 kts 44°
2026-04-14 12:41 -31.09003 -61.17513 8887 ft 85 kts 44°
2026-04-14 12:41 -31.08632 -61.16985 8886 ft 86 kts 44°
2026-04-14 12:41 -31.08250 -61.16441 8887 ft 88 kts 44°
2026-04-14 12:41 -31.07859 -61.15884 8903 ft 90 kts 44°
2026-04-14 12:42 -31.07460 -61.15316 8905 ft 92 kts 44°
2026-04-14 12:42 -31.07049 -61.14730 8917 ft 93 kts 44°
2026-04-14 12:42 -31.06640 -61.14147 8924 ft 94 kts 45°
2026-04-14 12:42 -31.06221 -61.13551 8923 ft 95 kts 45°
2026-04-14 12:43 -31.05800 -61.12951 8924 ft 95 kts 45°
2026-04-14 12:43 -31.05383 -61.12357 8923 ft 94 kts 44°
2026-04-14 12:43 -31.04970 -61.11769 8922 ft 93 kts 44°
2026-04-14 12:43 -31.04563 -61.11189 8918 ft 92 kts 44°
2026-04-14 12:44 -31.04161 -61.10618 8912 ft 91 kts 44°
2026-04-14 12:44 -31.03764 -61.10053 8914 ft 89 kts 44°
2026-04-14 12:44 -31.03371 -61.09494 8910 ft 89 kts 44°
2026-04-14 12:45 -31.02589 -61.08382 8911 ft 89 kts 44°
2026-04-14 12:45 -31.02199 -61.07827 8911 ft 89 kts 44°
2026-04-14 12:45 -31.01807 -61.07271 8910 ft 89 kts 44°
2026-04-14 12:45 -31.01416 -61.06715 8912 ft 88 kts 44°
2026-04-14 12:46 -31.01029 -61.06165 8914 ft 87 kts 44°
2026-04-14 12:46 -31.00644 -61.05618 8913 ft 87 kts 44°
2026-04-14 12:46 -31.00261 -61.05073 8913 ft 88 kts 43°
2026-04-14 12:46 -30.99863 -61.04510 8923 ft 91 kts 44°
2026-04-14 12:47 -30.99457 -61.03933 8928 ft 93 kts 44°
2026-04-14 12:47 -30.99042 -61.03344 8930 ft 95 kts 44°
2026-04-14 12:47 -30.98628 -61.02756 8930 ft 96 kts 44°
2026-04-14 12:47 -30.98203 -61.02153 8930 ft 96 kts 44°
2026-04-14 12:48 -30.97775 -61.01545 8928 ft 97 kts 44°
2026-04-14 12:48 -30.97349 -61.00940 8929 ft 96 kts 44°
2026-04-14 12:48 -30.96926 -61.00340 8930 ft 96 kts 44°
2026-04-14 12:48 -30.96501 -60.99736 8933 ft 97 kts 44°
2026-04-14 12:49 -30.96072 -60.99129 8934 ft 97 kts 44°
2026-04-14 12:49 -30.95641 -60.98518 8928 ft 98 kts 44°
2026-04-14 12:49 -30.95209 -60.97905 8928 ft 98 kts 44°
2026-04-14 12:49 -30.94774 -60.97287 8929 ft 99 kts 44°
2026-04-14 12:50 -30.94484 -60.96877 8930 ft 99 kts 44°
2026-04-14 12:50 -30.93607 -60.95633 8933 ft 99 kts 44°
2026-04-14 12:50 -30.93025 -60.94809 8930 ft 99 kts 44°
2026-04-14 12:51 -30.92586 -60.94187 8929 ft 100 kts 44°
2026-04-14 12:51 -30.92289 -60.93766 8932 ft 100 kts 44°
2026-04-14 12:51 -30.91849 -60.93143 8931 ft 100 kts 44°
2026-04-14 12:51 -30.91409 -60.92520 8931 ft 100 kts 44°
2026-04-14 12:52 -30.90968 -60.91896 8931 ft 100 kts 44°
2026-04-14 12:52 -30.90533 -60.91280 8927 ft 100 kts 44°
2026-04-14 12:52 -30.90093 -60.90657 8928 ft 100 kts 44°
2026-04-14 12:52 -30.89652 -60.90032 8930 ft 100 kts 44°
2026-04-14 12:53 -30.89211 -60.89409 8929 ft 100 kts 44°
2026-04-14 12:53 -30.88770 -60.88785 8931 ft 100 kts 44°
2026-04-14 12:53 -30.88330 -60.88163 8927 ft 100 kts 44°
2026-04-14 12:53 -30.87890 -60.87540 8928 ft 100 kts 44°
2026-04-14 12:54 -30.87448 -60.86915 8928 ft 100 kts 44°
2026-04-14 12:54 -30.87006 -60.86290 8930 ft 100 kts 44°
2026-04-14 12:54 -30.86564 -60.85666 8927 ft 100 kts 44°
2026-04-14 12:54 -30.86123 -60.85041 8926 ft 100 kts 44°
2026-04-14 12:55 -30.85683 -60.84420 8925 ft 99 kts 44°
2026-04-14 12:55 -30.85250 -60.83809 8928 ft 99 kts 44°
2026-04-14 12:55 -30.84810 -60.83187 8928 ft 100 kts 44°
2026-04-14 12:55 -30.84369 -60.82565 8930 ft 100 kts 44°
2026-04-14 12:56 -30.83927 -60.81939 8928 ft 100 kts 44°
2026-04-14 12:56 -30.83485 -60.81316 8930 ft 100 kts 44°
2026-04-14 12:56 -30.83044 -60.80693 8929 ft 99 kts 44°
2026-04-14 12:56 -30.82606 -60.80074 8929 ft 99 kts 44°
2026-04-14 12:57 -30.82168 -60.79456 8927 ft 99 kts 44°
2026-04-14 12:57 -30.81729 -60.78837 8926 ft 99 kts 44°
2026-04-14 12:57 -30.81290 -60.78218 8927 ft 99 kts 44°
2026-04-14 12:57 -30.80850 -60.77597 8926 ft 99 kts 44°
2026-04-14 12:58 -30.80410 -60.76977 8925 ft 99 kts 44°
2026-04-14 12:58 -30.79970 -60.76356 8928 ft 99 kts 44°
2026-04-14 12:58 -30.79536 -60.75744 8929 ft 99 kts 44°
2026-04-14 12:58 -30.79098 -60.75126 8929 ft 99 kts 44°
2026-04-14 12:59 -30.78659 -60.74507 8927 ft 99 kts 44°
2026-04-14 12:59 -30.78221 -60.73890 8928 ft 99 kts 44°
2026-04-14 12:59 -30.77781 -60.73270 8927 ft 99 kts 44°
2026-04-14 12:59 -30.77341 -60.72651 8925 ft 99 kts 44°
2026-04-14 13:00 -30.76902 -60.72032 8925 ft 99 kts 44°
2026-04-14 13:00 -30.76463 -60.71414 8923 ft 99 kts 44°
2026-04-14 13:00 -30.76028 -60.70801 8924 ft 99 kts 44°
2026-04-14 13:00 -30.75587 -60.70180 8927 ft 99 kts 44°
2026-04-14 13:01 -30.75148 -60.69561 8927 ft 99 kts 44°
2026-04-14 13:01 -30.74707 -60.68941 8929 ft 100 kts 44°
2026-04-14 13:01 -30.74264 -60.68318 8929 ft 100 kts 44°
2026-04-14 13:01 -30.73823 -60.67697 8930 ft 100 kts 44°
2026-04-14 13:02 -30.73385 -60.67081 8931 ft 100 kts 44°
2026-04-14 13:02 -30.72943 -60.66460 8926 ft 100 kts 44°
2026-04-14 13:02 -30.72502 -60.65839 8924 ft 99 kts 44°
2026-04-14 13:02 -30.72063 -60.65222 8925 ft 99 kts 44°
2026-04-14 13:03 -30.71626 -60.64607 8926 ft 98 kts 44°
2026-04-14 13:03 -30.71195 -60.64001 8928 ft 98 kts 44°
2026-04-14 13:03 -30.70758 -60.63387 8923 ft 98 kts 44°
2026-04-14 13:03 -30.70322 -60.62774 8926 ft 98 kts 44°
2026-04-14 13:04 -30.69885 -60.62161 8922 ft 98 kts 44°
2026-04-14 13:04 -30.69449 -60.61548 8918 ft 98 kts 44°
2026-04-14 13:04 -30.69012 -60.60934 8921 ft 98 kts 44°
2026-04-14 13:04 -30.68582 -60.60330 8921 ft 98 kts 44°
2026-04-14 13:05 -30.68148 -60.59721 8920 ft 98 kts 44°
2026-04-14 13:05 -30.67713 -60.59109 8923 ft 98 kts 44°
2026-04-14 13:05 -30.67278 -60.58499 8922 ft 98 kts 44°
2026-04-14 13:05 -30.66843 -60.57889 8922 ft 98 kts 44°
2026-04-14 13:06 -30.66409 -60.57280 8925 ft 98 kts 44°
2026-04-14 13:06 -30.65975 -60.56670 8926 ft 98 kts 44°
2026-04-14 13:06 -30.65538 -60.56058 8922 ft 99 kts 44°
2026-04-14 13:06 -30.65101 -60.55444 8926 ft 98 kts 44°
2026-04-14 13:07 -30.64666 -60.54834 8922 ft 98 kts 44°
2026-04-14 13:07 -30.64230 -60.54223 8923 ft 98 kts 44°
2026-04-14 13:07 -30.63795 -60.53613 8926 ft 98 kts 44°
2026-04-14 13:07 -30.63361 -60.53004 8926 ft 98 kts 44°
2026-04-14 13:08 -30.62931 -60.52401 8927 ft 98 kts 44°
2026-04-14 13:08 -30.62495 -60.51791 8924 ft 98 kts 44°
2026-04-14 13:08 -30.62057 -60.51177 8923 ft 99 kts 44°
2026-04-14 13:08 -30.61618 -60.50562 8927 ft 99 kts 44°
2026-04-14 13:09 -30.61178 -60.49945 8923 ft 99 kts 44°
2026-04-14 13:09 -30.60737 -60.49328 8924 ft 99 kts 44°
2026-04-14 13:09 -30.60299 -60.48715 8923 ft 99 kts 44°
2026-04-14 13:09 -30.59862 -60.48102 8922 ft 99 kts 44°
2026-04-14 13:10 -30.59424 -60.47489 8925 ft 98 kts 44°
2026-04-14 13:10 -30.58987 -60.46878 8921 ft 98 kts 44°
2026-04-14 13:10 -30.58551 -60.46267 8924 ft 98 kts 44°
2026-04-14 13:10 -30.58114 -60.45657 8925 ft 99 kts 44°
2026-04-14 13:11 -30.57675 -60.45042 8924 ft 99 kts 44°
2026-04-14 13:11 -30.57240 -60.44434 8926 ft 99 kts 44°
2026-04-14 13:11 -30.56798 -60.43815 8923 ft 99 kts 44°
2026-04-14 13:11 -30.56355 -60.43196 8925 ft 100 kts 44°
2026-04-14 13:12 -30.55911 -60.42575 8922 ft 100 kts 44°
2026-04-14 13:12 -30.55468 -60.41956 8925 ft 99 kts 44°
2026-04-14 13:12 -30.55027 -60.41340 8921 ft 99 kts 44°
2026-04-14 13:12 -30.54587 -60.40725 8921 ft 99 kts 44°
2026-04-14 13:13 -30.54149 -60.40112 8920 ft 99 kts 44°
2026-04-14 13:13 -30.53711 -60.39501 8921 ft 98 kts 44°
2026-04-14 13:13 -30.53279 -60.38898 8921 ft 98 kts 44°
2026-04-14 13:13 -30.52843 -60.38288 8921 ft 98 kts 44°
2026-04-14 13:14 -30.52406 -60.37678 8921 ft 98 kts 44°
2026-04-14 13:14 -30.51971 -60.37071 8919 ft 98 kts 44°
2026-04-14 13:14 -30.51536 -60.36463 8918 ft 98 kts 44°
2026-04-14 13:14 -30.51101 -60.35856 8919 ft 98 kts 44°
2026-04-14 13:15 -30.50666 -60.35249 8918 ft 98 kts 44°
2026-04-14 13:15 -30.50230 -60.34641 8923 ft 98 kts 44°
2026-04-14 13:15 -30.49800 -60.34041 8921 ft 98 kts 44°
2026-04-14 13:15 -30.49367 -60.33436 8922 ft 97 kts 43°
2026-04-14 13:16 -30.48935 -60.32834 8923 ft 97 kts 44°
2026-04-14 13:16 -30.48502 -60.32230 8919 ft 97 kts 44°
2026-04-14 13:16 -30.48068 -60.31625 8918 ft 98 kts 44°
2026-04-14 13:16 -30.47633 -60.31019 8918 ft 98 kts 44°
2026-04-14 13:17 -30.47198 -60.30412 8917 ft 98 kts 44°
2026-04-14 13:17 -30.46762 -60.29805 8919 ft 98 kts 44°
2026-04-14 13:17 -30.46325 -60.29197 8919 ft 98 kts 43°
2026-04-14 13:17 -30.45888 -60.28588 8918 ft 98 kts 43°
2026-04-14 13:18 -30.45450 -60.27978 8917 ft 99 kts 43°
2026-04-14 13:18 -30.45012 -60.27367 8918 ft 99 kts 43°
2026-04-14 13:18 -30.44573 -60.26756 8920 ft 99 kts 44°
2026-04-14 13:18 -30.44134 -60.26145 8917 ft 99 kts 44°
2026-04-14 13:19 -30.43701 -60.25542 8917 ft 99 kts 44°
2026-04-14 13:19 -30.43262 -60.24931 8920 ft 99 kts 44°
2026-04-14 13:19 -30.42823 -60.24320 8918 ft 99 kts 44°
2026-04-14 13:19 -30.42384 -60.23709 8918 ft 99 kts 44°
2026-04-14 13:20 -30.41945 -60.23098 8916 ft 98 kts 43°
2026-04-14 13:20 -30.41507 -60.22489 8922 ft 98 kts 43°
2026-04-14 13:20 -30.41068 -60.21878 8920 ft 98 kts 43°
2026-04-14 13:20 -30.40633 -60.21266 8919 ft 99 kts 45°
2026-04-14 13:21 -30.40208 -60.20643 8921 ft 99 kts 44°
2026-04-14 13:21 -30.39784 -60.20019 8918 ft 99 kts 45°
2026-04-14 13:21 -30.39360 -60.19394 8917 ft 99 kts 45°
2026-04-14 13:21 -30.38943 -60.18778 8916 ft 98 kts 45°
2026-04-14 13:22 -30.38519 -60.18152 8917 ft 99 kts 45°
2026-04-14 13:22 -30.38096 -60.17527 8914 ft 99 kts 45°
2026-04-14 13:22 -30.37673 -60.16901 8918 ft 99 kts 45°
2026-04-14 13:22 -30.37250 -60.16276 8916 ft 99 kts 44°
2026-04-14 13:23 -30.36826 -60.15649 8915 ft 99 kts 45°
2026-04-14 13:23 -30.36402 -60.15023 8920 ft 99 kts 45°
2026-04-14 13:23 -30.35978 -60.14396 8921 ft 99 kts 44°
2026-04-14 13:23 -30.35555 -60.13770 8922 ft 99 kts 44°
2026-04-14 13:24 -30.35130 -60.13143 8923 ft 99 kts 45°
2026-04-14 13:24 -30.34277 -60.11883 8918 ft 100 kts 44°
2026-04-14 13:24 -30.33848 -60.11250 8917 ft 100 kts 45°
2026-04-14 13:25 -30.33421 -60.10618 8917 ft 100 kts 45°
2026-04-14 13:25 -30.32993 -60.09987 8922 ft 99 kts 45°
2026-04-14 13:26 -30.31696 -60.08075 8927 ft 103 kts 45°
2026-04-14 13:26 -30.31253 -60.07420 8929 ft 104 kts 45°
2026-04-14 13:26 -30.30807 -60.06763 8928 ft 104 kts 45°
2026-04-14 13:26 -30.30363 -60.06107 8930 ft 103 kts 45°
2026-04-14 13:27 -30.29921 -60.05455 8930 ft 102 kts 45°
2026-04-14 13:27 -30.29483 -60.04809 8925 ft 102 kts 45°
2026-04-14 13:27 -30.29044 -60.04163 8924 ft 102 kts 45°
2026-04-14 13:27 -30.28607 -60.03518 8922 ft 102 kts 45°
2026-04-14 13:28 -30.28171 -60.02876 8919 ft 101 kts 45°
2026-04-14 13:28 -30.27724 -60.02219 8932 ft 111 kts 45°
2026-04-14 13:28 -30.27208 -60.01462 8938 ft 128 kts 45°
2026-04-14 13:28 -30.26630 -60.00612 8939 ft 140 kts 46°
2026-04-14 13:29 -30.26007 -59.99693 8939 ft 149 kts 47°
2026-04-14 13:29 -30.25354 -59.98730 8933 ft 154 kts 47°
2026-04-14 13:29 -30.24685 -59.97744 8942 ft 157 kts 47°
2026-04-14 13:29 -30.24007 -59.96745 8940 ft 158 kts 47°
2026-04-14 13:30 -30.23325 -59.95741 8938 ft 159 kts 47°
2026-04-14 13:30 -30.22637 -59.94729 8938 ft 160 kts 47°
2026-04-14 13:30 -30.21945 -59.93712 8940 ft 161 kts 47°
2026-04-14 13:30 -30.21260 -59.92706 8937 ft 161 kts 47°
2026-04-14 13:31 -30.20567 -59.91686 8938 ft 161 kts 47°
2026-04-14 13:31 -30.19872 -59.90666 8936 ft 161 kts 47°
2026-04-14 13:31 -30.19181 -59.89651 8938 ft 161 kts 47°
2026-04-14 13:31 -30.18489 -59.88635 8937 ft 161 kts 47°
2026-04-14 13:32 -30.17799 -59.87621 8938 ft 160 kts 47°
2026-04-14 13:32 -30.17113 -59.86614 8936 ft 159 kts 47°
2026-04-14 13:32 -30.16428 -59.85610 8936 ft 159 kts 47°
2026-04-14 13:32 -30.15745 -59.84607 8937 ft 159 kts 47°
2026-04-14 13:33 -30.15061 -59.83605 8934 ft 159 kts 46°
2026-04-14 13:33 -30.14377 -59.82610 8931 ft 158 kts 46°
2026-04-14 13:33 -30.13700 -59.81621 8930 ft 157 kts 46°
2026-04-14 13:33 -30.13025 -59.80632 8929 ft 156 kts 46°
2026-04-14 13:34 -30.11674 -59.78654 8926 ft 157 kts 47°
2026-04-14 13:34 -30.11008 -59.77678 8926 ft 157 kts 47°
2026-04-14 13:34 -30.10323 -59.76675 8926 ft 157 kts 46°
2026-04-14 13:35 -30.09648 -59.75687 8922 ft 157 kts 46°
2026-04-14 13:35 -30.08974 -59.74701 8928 ft 156 kts 46°
2026-04-14 13:35 -30.08310 -59.73729 8925 ft 156 kts 46°
2026-04-14 13:35 -30.07635 -59.72743 8926 ft 156 kts 46°
2026-04-14 13:36 -30.06961 -59.71757 8926 ft 156 kts 46°
2026-04-14 13:36 -30.06287 -59.70771 8924 ft 156 kts 46°
2026-04-14 13:36 -30.05612 -59.69784 8924 ft 156 kts 46°
2026-04-14 13:36 -30.04939 -59.68801 8919 ft 156 kts 46°
2026-04-14 13:37 -30.04266 -59.67819 8921 ft 156 kts 46°
2026-04-14 13:37 -30.03591 -59.66833 8925 ft 157 kts 46°
2026-04-14 13:37 -30.02909 -59.65837 8930 ft 158 kts 47°
2026-04-14 13:37 -30.02225 -59.64839 8926 ft 158 kts 46°
2026-04-14 13:38 -30.01546 -59.63847 8921 ft 157 kts 46°
2026-04-14 13:38 -30.01097 -59.63193 8919 ft 157 kts 46°
2026-04-14 13:38 -30.00421 -59.62206 8923 ft 157 kts 46°
2026-04-14 13:38 -29.99745 -59.61221 8922 ft 157 kts 46°
2026-04-14 13:39 -29.98848 -59.59913 8919 ft 157 kts 46°
2026-04-14 13:39 -29.98173 -59.58929 8924 ft 156 kts 46°
2026-04-14 13:39 -29.97717 -59.58264 8923 ft 156 kts 46°
2026-04-14 13:39 -29.97043 -59.57282 8923 ft 156 kts 46°
2026-04-14 13:40 -29.96368 -59.56299 8924 ft 156 kts 46°
2026-04-14 13:40 -29.95693 -59.55316 8923 ft 156 kts 46°
2026-04-14 13:40 -29.95025 -59.54344 8924 ft 156 kts 46°
2026-04-14 13:40 -29.94350 -59.53360 8923 ft 157 kts 46°
2026-04-14 13:41 -29.93674 -59.52377 8922 ft 157 kts 46°
2026-04-14 13:41 -29.92996 -59.51390 8925 ft 157 kts 46°
2026-04-14 13:41 -29.92319 -59.50406 8922 ft 156 kts 46°
2026-04-14 13:41 -29.91644 -59.49425 8925 ft 156 kts 46°
2026-04-14 13:42 -29.90969 -59.48443 8924 ft 156 kts 46°
2026-04-14 13:42 -29.90294 -59.47462 8924 ft 156 kts 46°
2026-04-14 13:42 -29.89615 -59.46476 8925 ft 157 kts 46°
2026-04-14 13:42 -29.88945 -59.45502 8922 ft 157 kts 46°
2026-04-14 13:43 -29.88266 -59.44516 8920 ft 157 kts 46°
2026-04-14 13:43 -29.87587 -59.43530 8923 ft 157 kts 46°
2026-04-14 13:43 -29.86909 -59.42545 8923 ft 157 kts 46°
2026-04-14 13:43 -29.86232 -59.41563 8921 ft 157 kts 46°
2026-04-14 13:44 -29.85553 -59.40579 8924 ft 157 kts 46°
2026-04-14 13:44 -29.84876 -59.39596 8922 ft 157 kts 46°
2026-04-14 13:44 -29.84200 -59.38616 8923 ft 156 kts 47°
2026-04-14 13:44 -29.83524 -59.37636 8921 ft 156 kts 47°
2026-04-14 13:45 -29.82849 -59.36657 8924 ft 156 kts 47°
2026-04-14 13:45 -29.82172 -59.35676 8927 ft 156 kts 47°
2026-04-14 13:45 -29.81494 -59.34694 8925 ft 156 kts 47°
2026-04-14 13:45 -29.80827 -59.33728 8923 ft 156 kts 47°
2026-04-14 13:46 -29.80152 -59.32750 8924 ft 156 kts 47°
2026-04-14 13:46 -29.79476 -59.31771 8923 ft 156 kts 47°
2026-04-14 13:46 -29.78800 -59.30792 8922 ft 156 kts 47°
2026-04-14 13:46 -29.78124 -59.29815 8923 ft 156 kts 47°
2026-04-14 13:47 -29.77448 -59.28836 8923 ft 156 kts 47°
2026-04-14 13:47 -29.76772 -59.27858 8922 ft 156 kts 47°
2026-04-14 13:47 -29.76094 -59.26879 8923 ft 156 kts 47°
2026-04-14 13:47 -29.75427 -59.25914 8925 ft 156 kts 46°
2026-04-14 13:48 -29.74750 -59.24935 8922 ft 156 kts 46°
2026-04-14 13:48 -29.74073 -59.23957 8923 ft 156 kts 47°
2026-04-14 13:48 -29.73397 -59.22980 8928 ft 156 kts 47°
2026-04-14 13:48 -29.72721 -59.22004 8925 ft 156 kts 47°
2026-04-14 13:49 -29.72046 -59.21029 8926 ft 156 kts 47°
2026-04-14 13:49 -29.71369 -59.20052 8922 ft 156 kts 47°
2026-04-14 13:49 -29.70692 -59.19075 8923 ft 156 kts 47°
2026-04-14 13:49 -29.70017 -59.18101 8924 ft 156 kts 47°
2026-04-14 13:50 -29.69342 -59.17127 8926 ft 156 kts 47°
2026-04-14 13:50 -29.68666 -59.16152 8928 ft 156 kts 47°
2026-04-14 13:50 -29.67990 -59.15178 8928 ft 156 kts 47°
2026-04-14 13:50 -29.67313 -59.14201 8925 ft 156 kts 47°
2026-04-14 13:51 -29.66636 -59.13225 8925 ft 156 kts 47°
2026-04-14 13:51 -29.65959 -59.12250 8923 ft 156 kts 47°
2026-04-14 13:51 -29.65285 -59.11279 8924 ft 155 kts 47°
2026-04-14 13:51 -29.64611 -59.10309 8923 ft 155 kts 47°
2026-04-14 13:52 -29.63936 -59.09338 8925 ft 155 kts 47°
2026-04-14 13:52 -29.63262 -59.08367 8927 ft 156 kts 47°
2026-04-14 13:52 -29.62594 -59.07406 8928 ft 156 kts 47°
2026-04-14 13:52 -29.61916 -59.06431 8926 ft 156 kts 47°
2026-04-14 13:53 -29.61237 -59.05455 8928 ft 157 kts 47°
2026-04-14 13:53 -29.60557 -59.04476 8924 ft 157 kts 47°
2026-04-14 13:53 -29.59877 -59.03499 8925 ft 157 kts 47°
2026-04-14 13:53 -29.59196 -59.02520 8924 ft 157 kts 47°
2026-04-14 13:54 -29.58515 -59.01541 8923 ft 157 kts 47°
2026-04-14 13:54 -29.57834 -59.00563 8924 ft 157 kts 47°
2026-04-14 13:54 -29.57151 -58.99581 8923 ft 157 kts 47°
2026-04-14 13:54 -29.56469 -58.98603 8922 ft 157 kts 47°
2026-04-14 13:55 -29.55786 -58.97621 8926 ft 157 kts 47°
2026-04-14 13:55 -29.55103 -58.96642 8924 ft 157 kts 47°
2026-04-14 13:55 -29.54420 -58.95661 8923 ft 157 kts 47°
2026-04-14 13:55 -29.53737 -58.94681 8924 ft 157 kts 47°
2026-04-14 13:56 -29.53061 -58.93713 8924 ft 157 kts 47°
2026-04-14 13:56 -29.52377 -58.92731 8926 ft 158 kts 47°
2026-04-14 13:56 -29.51693 -58.91750 8926 ft 157 kts 47°
2026-04-14 13:56 -29.51009 -58.90770 8928 ft 157 kts 47°
2026-04-14 13:57 -29.50325 -58.89790 8927 ft 157 kts 47°
2026-04-14 13:57 -29.49640 -58.88809 8926 ft 157 kts 47°
2026-04-14 13:57 -29.48955 -58.87828 8924 ft 157 kts 47°
2026-04-14 13:57 -29.48271 -58.86848 8924 ft 157 kts 47°
2026-04-14 13:58 -29.47586 -58.85868 8926 ft 157 kts 47°
2026-04-14 13:58 -29.46902 -58.84888 8929 ft 157 kts 47°
2026-04-14 13:58 -29.46217 -58.83909 8924 ft 157 kts 47°
2026-04-14 13:58 -29.45533 -58.82930 8928 ft 157 kts 47°
2026-04-14 13:59 -29.44849 -58.81951 8927 ft 157 kts 47°
2026-04-14 13:59 -29.44166 -58.80975 8925 ft 157 kts 47°
2026-04-14 13:59 -29.43483 -58.79999 8922 ft 157 kts 47°
2026-04-14 13:59 -29.42802 -58.79025 8920 ft 157 kts 47°
2026-04-14 14:00 -29.42121 -58.78052 8924 ft 156 kts 47°
2026-04-14 14:00 -29.41440 -58.77079 8928 ft 156 kts 47°
2026-04-14 14:00 -29.40758 -58.76106 8931 ft 156 kts 47°
2026-04-14 14:00 -29.40087 -58.75147 8930 ft 156 kts 47°
2026-04-14 14:01 -29.39406 -58.74175 8931 ft 156 kts 47°
2026-04-14 14:01 -29.38725 -58.73202 8929 ft 157 kts 47°
2026-04-14 14:01 -29.38042 -58.72228 8926 ft 157 kts 47°
2026-04-14 14:01 -29.37360 -58.71255 8928 ft 157 kts 47°
2026-04-14 14:02 -29.36676 -58.70280 8930 ft 157 kts 47°
2026-04-14 14:02 -29.35989 -58.69301 8928 ft 158 kts 47°
2026-04-14 14:02 -29.35303 -58.68323 8931 ft 158 kts 47°
2026-04-14 14:02 -29.34614 -58.67341 8933 ft 158 kts 47°
2026-04-14 14:03 -29.33926 -58.66359 8929 ft 158 kts 47°
2026-04-14 14:03 -29.33236 -58.65377 8928 ft 158 kts 47°
2026-04-14 14:03 -29.32546 -58.64394 8928 ft 158 kts 47°
2026-04-14 14:03 -29.31856 -58.63412 8926 ft 158 kts 47°
2026-04-14 14:04 -29.31167 -58.62431 8930 ft 158 kts 47°
2026-04-14 14:04 -29.30477 -58.61449 8928 ft 158 kts 47°
2026-04-14 14:04 -29.29788 -58.60468 8929 ft 158 kts 47°
2026-04-14 14:04 -29.29107 -58.59500 8929 ft 158 kts 47°
2026-04-14 14:05 -29.28414 -58.58515 8929 ft 158 kts 47°
2026-04-14 14:05 -29.27722 -58.57531 8934 ft 158 kts 47°
2026-04-14 14:05 -29.27029 -58.56545 8936 ft 159 kts 47°
2026-04-14 14:05 -29.26337 -58.55562 8935 ft 159 kts 47°
2026-04-14 14:06 -29.25642 -58.54575 8935 ft 159 kts 47°
2026-04-14 14:06 -29.24946 -58.53586 8932 ft 159 kts 47°
2026-04-14 14:06 -29.24250 -58.52598 8930 ft 159 kts 47°
2026-04-14 14:06 -29.23554 -58.51609 8928 ft 159 kts 47°
2026-04-14 14:07 -29.22858 -58.50622 8929 ft 160 kts 47°
2026-04-14 14:07 -29.22162 -58.49634 8931 ft 159 kts 47°
2026-04-14 14:07 -29.21477 -58.48661 8932 ft 159 kts 47°
2026-04-14 14:07 -29.20781 -58.47675 8931 ft 159 kts 47°
2026-04-14 14:08 -29.20085 -58.46688 8927 ft 160 kts 47°
2026-04-14 14:08 -29.19384 -58.45694 8928 ft 160 kts 47°
2026-04-14 14:08 -29.18686 -58.44704 8930 ft 160 kts 47°
2026-04-14 14:08 -29.17986 -58.43713 8927 ft 160 kts 47°
2026-04-14 14:09 -29.17288 -58.42724 8931 ft 160 kts 47°
2026-04-14 14:09 -29.16590 -58.41735 8930 ft 160 kts 47°
2026-04-14 14:09 -29.15890 -58.40744 8928 ft 160 kts 47°
2026-04-14 14:09 -29.15191 -58.39755 8930 ft 160 kts 47°
2026-04-14 14:10 -29.14490 -58.38763 8926 ft 160 kts 47°
2026-04-14 14:10 -29.13791 -58.37773 8929 ft 160 kts 47°
2026-04-14 14:10 -29.13090 -58.36781 8932 ft 160 kts 47°
2026-04-14 14:10 -29.12389 -58.35791 8930 ft 160 kts 47°
2026-04-14 14:11 -29.11687 -58.34798 8931 ft 161 kts 47°
2026-04-14 14:11 -29.10985 -58.33805 8926 ft 160 kts 47°
2026-04-14 14:11 -29.10285 -58.32816 8923 ft 160 kts 47°
2026-04-14 14:11 -29.09584 -58.31826 8927 ft 160 kts 47°
2026-04-14 14:12 -29.08890 -58.30846 8926 ft 161 kts 47°
2026-04-14 14:12 -29.08184 -58.29849 8928 ft 161 kts 47°
2026-04-14 14:12 -29.07483 -58.28858 8932 ft 160 kts 47°
2026-04-14 14:12 -29.06779 -58.27865 8931 ft 161 kts 47°
2026-04-14 14:13 -29.06075 -58.26870 8934 ft 161 kts 47°
2026-04-14 14:13 -29.05369 -58.25875 8932 ft 161 kts 47°
2026-04-14 14:13 -29.04662 -58.24877 8929 ft 161 kts 47°
2026-04-14 14:13 -29.03957 -58.23883 8930 ft 161 kts 47°
2026-04-14 14:14 -29.03251 -58.22888 8926 ft 161 kts 47°
2026-04-14 14:14 -29.02545 -58.21893 8929 ft 161 kts 47°
2026-04-14 14:14 -29.01836 -58.20894 8932 ft 162 kts 47°
2026-04-14 14:14 -29.01128 -58.19896 8936 ft 162 kts 47°
2026-04-14 14:15 -29.00418 -58.18896 8931 ft 162 kts 47°
2026-04-14 14:15 -28.99709 -58.17897 8930 ft 161 kts 47°
2026-04-14 14:15 -28.99002 -58.16902 8931 ft 160 kts 47°
2026-04-14 14:15 -28.98300 -58.15913 8930 ft 160 kts 47°
2026-04-14 14:16 -28.97606 -58.14938 8931 ft 160 kts 47°
2026-04-14 14:16 -28.96904 -58.13950 8935 ft 160 kts 47°
2026-04-14 14:16 -28.96200 -58.12960 8937 ft 160 kts 47°
2026-04-14 14:17 -28.94789 -58.10977 8933 ft 161 kts 47°
2026-04-14 14:17 -28.94085 -58.09987 8931 ft 160 kts 47°
2026-04-14 14:17 -28.93381 -58.08997 8932 ft 161 kts 47°
2026-04-14 14:17 -28.92677 -58.08008 8931 ft 161 kts 47°
2026-04-14 14:18 -28.91971 -58.07017 8933 ft 160 kts 47°
2026-04-14 14:18 -28.91268 -58.06030 8931 ft 160 kts 47°
2026-04-14 14:18 -28.90573 -58.05053 8931 ft 161 kts 47°
2026-04-14 14:18 -28.89867 -58.04063 8930 ft 161 kts 47°
2026-04-14 14:19 -28.89160 -58.03071 8929 ft 161 kts 47°
2026-04-14 14:19 -28.88452 -58.02078 8928 ft 161 kts 47°
2026-04-14 14:19 -28.87745 -58.01086 8928 ft 161 kts 47°
2026-04-14 14:19 -28.87038 -58.00094 8927 ft 161 kts 47°
2026-04-14 14:20 -28.86329 -57.99102 8931 ft 161 kts 47°
2026-04-14 14:20 -28.85621 -57.98109 8928 ft 161 kts 47°
2026-04-14 14:20 -28.84912 -57.97115 8930 ft 162 kts 47°
2026-04-14 14:20 -28.84201 -57.96119 8930 ft 162 kts 47°
2026-04-14 14:21 -28.83489 -57.95123 8926 ft 162 kts 47°
2026-04-14 14:21 -28.82778 -57.94126 8932 ft 162 kts 47°
2026-04-14 14:21 -28.82065 -57.93129 8930 ft 162 kts 47°
2026-04-14 14:21 -28.81351 -57.92129 8932 ft 163 kts 47°
2026-04-14 14:22 -28.80635 -57.91128 8931 ft 163 kts 47°
2026-04-14 14:22 -28.79921 -57.90128 8927 ft 162 kts 47°
2026-04-14 14:22 -28.79206 -57.89129 8927 ft 163 kts 47°
2026-04-14 14:22 -28.78491 -57.88129 8929 ft 163 kts 47°
2026-04-14 14:23 -28.77776 -57.87130 8930 ft 163 kts 47°
2026-04-14 14:23 -28.77070 -57.86143 8929 ft 163 kts 47°
2026-04-14 14:23 -28.76353 -57.85141 8928 ft 163 kts 47°
2026-04-14 14:23 -28.75638 -57.84142 8929 ft 163 kts 47°
2026-04-14 14:24 -28.74923 -57.83144 8928 ft 163 kts 47°
2026-04-14 14:24 -28.74208 -57.82146 8931 ft 163 kts 47°
2026-04-14 14:24 -28.73490 -57.81143 8931 ft 163 kts 47°
2026-04-14 14:24 -28.72771 -57.80140 8935 ft 163 kts 47°
2026-04-14 14:25 -28.72294 -57.79475 8933 ft 163 kts 47°
2026-04-14 14:25 -28.71576 -57.78473 8931 ft 163 kts 47°
2026-04-14 14:25 -28.70857 -57.77471 8933 ft 163 kts 47°
2026-04-14 14:25 -28.70138 -57.76468 8932 ft 163 kts 47°
2026-04-14 14:26 -28.69418 -57.75465 8932 ft 164 kts 47°
2026-04-14 14:26 -28.68697 -57.74460 8932 ft 164 kts 46°
2026-04-14 14:26 -28.67744 -57.73133 8931 ft 163 kts 47°
2026-04-14 14:26 -28.67257 -57.72454 8932 ft 163 kts 47°
2026-04-14 14:27 -28.66547 -57.71465 8930 ft 163 kts 47°
2026-04-14 14:27 -28.65828 -57.70463 8931 ft 163 kts 46°
2026-04-14 14:27 -28.65109 -57.69463 8930 ft 163 kts 46°
2026-04-14 14:27 -28.64392 -57.68465 8934 ft 162 kts 46°
2026-04-14 14:28 -28.63676 -57.67470 8933 ft 162 kts 46°
2026-04-14 14:28 -28.62960 -57.66474 8932 ft 163 kts 46°
2026-04-14 14:28 -28.62242 -57.65476 8932 ft 163 kts 46°
2026-04-14 14:28 -28.61524 -57.64477 8934 ft 163 kts 46°
2026-04-14 14:29 -28.60806 -57.63478 8933 ft 163 kts 46°
2026-04-14 14:29 -28.60086 -57.62479 8933 ft 163 kts 46°
2026-04-14 14:29 -28.59365 -57.61478 8931 ft 163 kts 46°
2026-04-14 14:29 -28.58644 -57.60476 8933 ft 164 kts 46°
2026-04-14 14:30 -28.57931 -57.59486 8930 ft 164 kts 47°
2026-04-14 14:30 -28.57210 -57.58485 8932 ft 163 kts 46°
2026-04-14 14:30 -28.56492 -57.57488 8930 ft 163 kts 46°
2026-04-14 14:30 -28.55775 -57.56493 8932 ft 163 kts 46°
2026-04-14 14:31 -28.55057 -57.55497 8931 ft 163 kts 47°
2026-04-14 14:31 -28.54341 -57.54504 8929 ft 163 kts 47°
2026-04-14 14:31 -28.53623 -57.53508 8928 ft 163 kts 46°
2026-04-14 14:31 -28.52907 -57.52515 8930 ft 163 kts 46°
2026-04-14 14:32 -28.52189 -57.51521 8932 ft 163 kts 46°
2026-04-14 14:32 -28.51471 -57.50526 8934 ft 163 kts 47°
2026-04-14 14:32 -28.50749 -57.49526 8935 ft 163 kts 47°
2026-04-14 14:32 -28.50028 -57.48528 8933 ft 164 kts 46°
2026-04-14 14:33 -28.49307 -57.47529 8933 ft 163 kts 46°
2026-04-14 14:33 -28.48585 -57.46530 8929 ft 163 kts 46°
2026-04-14 14:33 -28.47865 -57.45533 8930 ft 164 kts 47°
2026-04-14 14:33 -28.47141 -57.44532 8932 ft 164 kts 46°
2026-04-14 14:34 -28.45702 -57.42541 8933 ft 164 kts 46°
2026-04-14 14:34 -28.44980 -57.41543 8934 ft 164 kts 46°
2026-04-14 14:34 -28.44253 -57.40538 8933 ft 164 kts 46°
2026-04-14 14:35 -28.43528 -57.39537 8936 ft 164 kts 46°
2026-04-14 14:35 -28.42804 -57.38536 8931 ft 164 kts 46°
2026-04-14 14:35 -28.42080 -57.37535 8931 ft 164 kts 46°
2026-04-14 14:35 -28.41357 -57.36538 8933 ft 163 kts 46°
2026-04-14 14:36 -28.40635 -57.35540 8933 ft 163 kts 46°
2026-04-14 14:36 -28.39912 -57.34544 8931 ft 163 kts 46°
2026-04-14 14:36 -28.39199 -57.33559 8932 ft 163 kts 46°
2026-04-14 14:36 -28.38478 -57.32564 8930 ft 163 kts 46°
2026-04-14 14:37 -28.37746 -57.31555 8931 ft 163 kts 46°
2026-04-14 14:37 -28.37035 -57.30574 8930 ft 163 kts 46°
2026-04-14 14:37 -28.36313 -57.29579 8931 ft 163 kts 46°
2026-04-14 14:37 -28.35592 -57.28585 8933 ft 163 kts 46°
2026-04-14 14:38 -28.34870 -57.27591 8932 ft 163 kts 46°
2026-04-14 14:38 -28.34148 -57.26596 8935 ft 163 kts 46°
2026-04-14 14:38 -28.33427 -57.25603 8933 ft 163 kts 46°
2026-04-14 14:38 -28.32708 -57.24612 8936 ft 163 kts 46°
2026-04-14 14:39 -28.31986 -57.23618 8934 ft 163 kts 46°
2026-04-14 14:39 -28.31263 -57.22624 8931 ft 163 kts 46°
2026-04-14 14:39 -28.30539 -57.21627 8930 ft 163 kts 46°
2026-04-14 14:39 -28.29819 -57.20637 8931 ft 163 kts 46°
2026-04-14 14:40 -28.29099 -57.19646 8933 ft 163 kts 46°
2026-04-14 14:40 -28.28376 -57.18652 8934 ft 163 kts 47°
2026-04-14 14:40 -28.27653 -57.17659 8935 ft 163 kts 46°
2026-04-14 14:40 -28.26933 -57.16668 8934 ft 163 kts 46°
2026-04-14 14:41 -28.26218 -57.15687 8934 ft 163 kts 46°
2026-04-14 14:41 -28.25493 -57.14691 8932 ft 164 kts 46°
2026-04-14 14:41 -28.24767 -57.13693 8929 ft 164 kts 46°
2026-04-14 14:41 -28.24043 -57.12700 8935 ft 163 kts 46°
2026-04-14 14:42 -28.23320 -57.11707 8930 ft 163 kts 46°
2026-04-14 14:42 -28.22597 -57.10714 8935 ft 163 kts 46°
2026-04-14 14:42 -28.21871 -57.09718 8935 ft 164 kts 47°
2026-04-14 14:42 -28.21145 -57.08722 8934 ft 164 kts 46°
2026-04-14 14:43 -28.20417 -57.07723 8934 ft 164 kts 46°
2026-04-14 14:43 -28.19690 -57.06728 8932 ft 164 kts 47°
2026-04-14 14:43 -28.18964 -57.05732 8933 ft 164 kts 47°
2026-04-14 14:43 -28.18247 -57.04749 8937 ft 164 kts 46°
2026-04-14 14:44 -28.17521 -57.03754 8938 ft 164 kts 46°
2026-04-14 14:44 -28.16795 -57.02760 8936 ft 164 kts 46°
2026-04-14 14:44 -28.16066 -57.01761 8937 ft 165 kts 46°
2026-04-14 14:44 -28.15335 -57.00761 8935 ft 165 kts 46°
2026-04-14 14:45 -28.14606 -56.99762 8935 ft 164 kts 46°
2026-04-14 14:45 -28.13877 -56.98765 8936 ft 164 kts 46°
2026-04-14 14:45 -28.13149 -56.97768 8934 ft 164 kts 46°
2026-04-14 14:45 -28.12422 -56.96774 8935 ft 164 kts 46°
2026-04-14 14:46 -28.11694 -56.95779 8932 ft 164 kts 47°
2026-04-14 14:46 -28.10970 -56.94788 8932 ft 163 kts 46°
2026-04-14 14:46 -28.10245 -56.93797 8932 ft 163 kts 46°
2026-04-14 14:46 -28.09520 -56.92807 8932 ft 163 kts 46°
2026-04-14 14:47 -28.08795 -56.91817 8938 ft 163 kts 47°
2026-04-14 14:47 -28.08080 -56.90839 8939 ft 163 kts 46°
2026-04-14 14:47 -28.07358 -56.89853 8936 ft 163 kts 46°
2026-04-14 14:47 -28.06635 -56.88866 8938 ft 163 kts 46°
2026-04-14 14:48 -28.05909 -56.87876 8937 ft 164 kts 47°
2026-04-14 14:48 -28.05181 -56.86882 8938 ft 164 kts 46°
2026-04-14 14:48 -28.04451 -56.85886 8937 ft 165 kts 46°
2026-04-14 14:48 -28.03716 -56.84883 8937 ft 165 kts 46°
2026-04-14 14:49 -28.02981 -56.83881 8933 ft 165 kts 46°
2026-04-14 14:49 -28.02248 -56.82881 8936 ft 165 kts 46°
2026-04-14 14:49 -28.01517 -56.81885 8937 ft 165 kts 46°
2026-04-14 14:49 -28.00786 -56.80888 8937 ft 164 kts 46°
2026-04-14 14:50 -28.00057 -56.79895 8938 ft 164 kts 46°
2026-04-14 14:50 -27.99327 -56.78901 8934 ft 164 kts 46°
2026-04-14 14:50 -27.98595 -56.77904 8932 ft 165 kts 46°
2026-04-14 14:50 -27.97862 -56.76906 8936 ft 165 kts 46°
2026-04-14 14:51 -27.97139 -56.75921 8935 ft 164 kts 46°
2026-04-14 14:51 -27.96398 -56.74913 8936 ft 165 kts 46°
2026-04-14 14:51 -27.95672 -56.73926 8936 ft 165 kts 46°
2026-04-14 14:51 -27.94938 -56.72927 8937 ft 165 kts 46°
2026-04-14 14:52 -27.94205 -56.71931 8937 ft 165 kts 46°
2026-04-14 14:52 -27.93473 -56.70935 8935 ft 164 kts 46°
2026-04-14 14:52 -27.92741 -56.69940 8938 ft 164 kts 46°
2026-04-14 14:52 -27.92010 -56.68947 8938 ft 165 kts 46°
2026-04-14 14:53 -27.91277 -56.67951 8938 ft 165 kts 46°
2026-04-14 14:53 -27.90542 -56.66952 8934 ft 165 kts 46°
2026-04-14 14:53 -27.89806 -56.65952 8937 ft 166 kts 47°
2026-04-14 14:53 -27.89068 -56.64951 8940 ft 166 kts 46°
2026-04-14 14:54 -27.88331 -56.63949 8936 ft 166 kts 46°
2026-04-14 14:54 -27.87592 -56.62948 8937 ft 166 kts 46°
2026-04-14 14:54 -27.86853 -56.61944 8937 ft 166 kts 46°
2026-04-14 14:54 -27.86112 -56.60939 8937 ft 167 kts 46°
2026-04-14 14:55 -27.85372 -56.59935 8939 ft 166 kts 46°
2026-04-14 14:55 -27.84632 -56.58932 8940 ft 166 kts 46°
2026-04-14 14:55 -27.83892 -56.57929 8938 ft 166 kts 46°
2026-04-14 14:55 -27.83149 -56.56922 8938 ft 167 kts 46°
2026-04-14 14:56 -27.81656 -56.54899 8941 ft 168 kts 46°
2026-04-14 14:56 -27.80919 -56.53901 8939 ft 168 kts 46°
2026-04-14 14:56 -27.80172 -56.52889 8942 ft 167 kts 46°
2026-04-14 14:57 -27.79425 -56.51879 8941 ft 168 kts 46°
2026-04-14 14:57 -27.78675 -56.50864 8936 ft 168 kts 46°
2026-04-14 14:57 -27.77928 -56.49853 8938 ft 168 kts 46°
2026-04-14 14:57 -27.77179 -56.48840 8937 ft 168 kts 46°
2026-04-14 14:58 -27.76430 -56.47827 8940 ft 168 kts 46°
2026-04-14 14:58 -27.75682 -56.46816 8938 ft 167 kts 46°
2026-04-14 14:58 -27.74940 -56.45813 8937 ft 166 kts 46°
2026-04-14 14:58 -27.74198 -56.44810 8941 ft 167 kts 46°
2026-04-14 14:59 -27.73450 -56.43800 8939 ft 168 kts 46°
2026-04-14 14:59 -27.72703 -56.42791 8942 ft 167 kts 46°
2026-04-14 14:59 -27.71956 -56.41782 8944 ft 167 kts 46°
2026-04-14 14:59 -27.71211 -56.40775 8939 ft 167 kts 46°
2026-04-14 15:00 -27.70465 -56.39769 8938 ft 167 kts 46°
2026-04-14 15:00 -27.69721 -56.38765 8936 ft 167 kts 46°
2026-04-14 15:00 -27.68975 -56.37758 8937 ft 167 kts 46°
2026-04-14 15:00 -27.68238 -56.36765 8934 ft 167 kts 46°
2026-04-14 15:01 -27.67496 -56.35764 8946 ft 166 kts 46°
2026-04-14 15:01 -27.66754 -56.34763 8940 ft 166 kts 46°
2026-04-14 15:01 -27.66011 -56.33763 8937 ft 167 kts 46°
2026-04-14 15:01 -27.65263 -56.32754 8940 ft 168 kts 46°
2026-04-14 15:02 -27.64514 -56.31745 8937 ft 168 kts 46°
2026-04-14 15:02 -27.63765 -56.30736 8935 ft 168 kts 46°
2026-04-14 15:02 -27.63018 -56.29729 8939 ft 168 kts 45°
2026-04-14 15:02 -27.62272 -56.28725 8938 ft 167 kts 46°
2026-04-14 15:03 -27.61529 -56.27726 8939 ft 166 kts 46°
2026-04-14 15:03 -27.60781 -56.26719 8940 ft 168 kts 46°
2026-04-14 15:03 -27.60032 -56.25711 8942 ft 167 kts 46°
2026-04-14 15:03 -27.59286 -56.24708 8941 ft 167 kts 45°
2026-04-14 15:04 -27.58543 -56.23708 8944 ft 166 kts 46°
2026-04-14 15:04 -27.57800 -56.22709 8945 ft 166 kts 46°
2026-04-14 15:04 -27.57067 -56.21725 8943 ft 166 kts 46°
2026-04-14 15:04 -27.56325 -56.20727 8947 ft 166 kts 46°
2026-04-14 15:05 -27.55582 -56.19729 8946 ft 166 kts 45°
2026-04-14 15:05 -27.54837 -56.18728 8952 ft 167 kts 45°
2026-04-14 15:05 -27.54092 -56.17727 8952 ft 167 kts 46°
2026-04-14 15:05 -27.53345 -56.16725 8949 ft 167 kts 45°
2026-04-14 15:06 -27.52600 -56.15725 8955 ft 167 kts 45°
2026-04-14 15:06 -27.51852 -56.14721 8953 ft 167 kts 45°
2026-04-14 15:06 -27.51105 -56.13719 8956 ft 167 kts 45°
2026-04-14 15:06 -27.50359 -56.12717 8953 ft 166 kts 45°
2026-04-14 15:07 -27.49618 -56.11723 8955 ft 166 kts 46°
2026-04-14 15:07 -27.48880 -56.10735 8956 ft 166 kts 46°
2026-04-14 15:07 -27.48137 -56.09739 8955 ft 166 kts 45°
2026-04-14 15:07 -27.47396 -56.08746 8955 ft 166 kts 45°
2026-04-14 15:08 -27.46652 -56.07750 8957 ft 166 kts 45°
2026-04-14 15:08 -27.45906 -56.06750 8957 ft 167 kts 46°
2026-04-14 15:08 -27.45161 -56.05753 8960 ft 166 kts 45°
2026-04-14 15:08 -27.44416 -56.04755 8957 ft 167 kts 45°
2026-04-14 15:09 -27.43669 -56.03756 8958 ft 167 kts 45°
2026-04-14 15:09 -27.42929 -56.02766 8959 ft 168 kts 45°
2026-04-14 15:09 -27.42179 -56.01762 8957 ft 168 kts 45°
2026-04-14 15:09 -27.41429 -56.00758 8960 ft 167 kts 45°
2026-04-14 15:10 -27.40679 -55.99754 8934 ft 168 kts 45°
2026-04-14 15:10 -27.39931 -55.98754 8933 ft 166 kts 46°
2026-04-14 15:10 -27.39186 -55.97757 8934 ft 166 kts 45°
2026-04-14 15:10 -27.38442 -55.96754 8932 ft 168 kts 48°
2026-04-14 15:11 -27.37726 -55.95713 8932 ft 169 kts 47°
2026-04-14 15:11 -27.36995 -55.94676 8934 ft 169 kts 47°
2026-04-14 15:11 -27.36263 -55.93631 8935 ft 170 kts 47°
2026-04-14 15:11 -27.35526 -55.92575 8936 ft 173 kts 47°
2026-04-14 15:12 -27.34788 -55.91517 8932 ft 171 kts 47°
2026-04-14 15:12 -27.34054 -55.90466 8934 ft 170 kts 47°
2026-04-14 15:12 -27.33571 -55.89774 8933 ft 170 kts 47°
2026-04-14 15:12 -27.32843 -55.88733 8933 ft 169 kts 47°
2026-04-14 15:13 -27.32119 -55.87697 8879 ft 168 kts 47°
2026-04-14 15:13 -27.31159 -55.86325 8876 ft 168 kts 47°
2026-04-14 15:13 -27.30670 -55.85625 8877 ft 168 kts 47°
2026-04-14 15:13 -27.29957 -55.84605 8881 ft 168 kts 47°
2026-04-14 15:14 -27.29230 -55.83566 8886 ft 170 kts 47°
2026-04-14 15:14 -27.28498 -55.82521 8880 ft 170 kts 47°
2026-04-14 15:14 -27.27765 -55.81473 8880 ft 171 kts 47°
2026-04-14 15:14 -27.27032 -55.80425 8885 ft 170 kts 47°
2026-04-14 15:15 -27.26297 -55.79376 8880 ft 171 kts 47°
2026-04-14 15:15 -27.25564 -55.78329 8881 ft 170 kts 47°
2026-04-14 15:15 -27.24830 -55.77281 8882 ft 171 kts 47°
2026-04-14 15:15 -27.24094 -55.76231 8876 ft 170 kts 47°
2026-04-14 15:16 -27.23361 -55.75185 8885 ft 170 kts 47°
2026-04-14 15:16 -27.22631 -55.74143 8881 ft 170 kts 47°
2026-04-14 15:16 -27.21899 -55.73098 8885 ft 171 kts 47°
2026-04-14 15:16 -27.21160 -55.72046 8887 ft 173 kts 47°
2026-04-14 15:17 -27.20410 -55.70977 8884 ft 174 kts 47°
2026-04-14 15:17 -27.19662 -55.69910 8899 ft 174 kts 47°
2026-04-14 15:17 -27.18909 -55.68837 8897 ft 175 kts 47°
2026-04-14 15:17 -27.18156 -55.67764 8901 ft 175 kts 47°
2026-04-14 15:18 -27.17405 -55.66694 8899 ft 174 kts 48°
2026-04-14 15:18 -27.16661 -55.65634 8901 ft 172 kts 47°
2026-04-14 15:18 -27.15926 -55.64588 8904 ft 173 kts 47°
2026-04-14 15:18 -27.15181 -55.63529 8911 ft 172 kts 47°
2026-04-14 15:19 -27.14436 -55.62468 8909 ft 173 kts 47°
2026-04-14 15:19 -27.13693 -55.61411 8911 ft 171 kts 47°
2026-04-14 15:19 -27.12952 -55.60358 8915 ft 172 kts 47°
2026-04-14 15:19 -27.12211 -55.59304 8922 ft 172 kts 48°
2026-04-14 15:20 -27.11466 -55.58244 8917 ft 173 kts 47°
2026-04-14 15:20 -27.10723 -55.57189 8925 ft 172 kts 47°
2026-04-14 15:20 -27.09981 -55.56135 8923 ft 172 kts 47°
2026-04-14 15:20 -27.09243 -55.55086 8930 ft 172 kts 47°
2026-04-14 15:21 -27.08505 -55.54038 8935 ft 170 kts 46°
2026-04-14 15:21 -27.07766 -55.52990 8945 ft 172 kts 47°
2026-04-14 15:21 -27.07024 -55.51936 8945 ft 171 kts 46°
2026-04-14 15:21 -27.06295 -55.50899 8945 ft 170 kts 47°
2026-04-14 15:22 -27.05558 -55.49853 8947 ft 171 kts 47°
2026-04-14 15:22 -27.04823 -55.48809 8951 ft 171 kts 46°
2026-04-14 15:22 -27.04085 -55.47761 8947 ft 172 kts 46°
2026-04-14 15:22 -27.03346 -55.46712 8951 ft 171 kts 47°
2026-04-14 15:23 -27.02603 -55.45657 8947 ft 172 kts 47°
2026-04-14 15:23 -27.01864 -55.44607 8951 ft 171 kts 47°
2026-04-14 15:23 -27.01123 -55.43558 8949 ft 170 kts 47°
2026-04-14 15:23 -27.00389 -55.42517 8949 ft 170 kts 47°
2026-04-14 15:24 -26.99657 -55.41479 8947 ft 170 kts 47°
2026-04-14 15:24 -26.98926 -55.40443 8947 ft 169 kts 47°
2026-04-14 15:24 -26.98205 -55.39421 8950 ft 169 kts 46°
2026-04-14 15:24 -26.97472 -55.38383 8949 ft 170 kts 47°
2026-04-14 15:25 -26.96738 -55.37344 8953 ft 170 kts 47°
2026-04-14 15:25 -26.96005 -55.36305 8946 ft 170 kts 47°
2026-04-14 15:25 -26.95264 -55.35257 8954 ft 172 kts 47°
2026-04-14 15:25 -26.94515 -55.34198 8950 ft 174 kts 47°
2026-04-14 15:26 -26.93768 -55.33138 8954 ft 173 kts 47°
2026-04-14 15:26 -26.93019 -55.32079 8954 ft 173 kts 47°
2026-04-14 15:26 -26.92270 -55.31020 8958 ft 173 kts 47°
2026-04-14 15:26 -26.91519 -55.29958 8953 ft 174 kts 47°
2026-04-14 15:27 -26.90770 -55.28899 8950 ft 173 kts 47°
2026-04-14 15:27 -26.90033 -55.27857 8952 ft 173 kts 48°
2026-04-14 15:27 -26.89288 -55.26804 8958 ft 173 kts 46°
2026-04-14 15:27 -26.88539 -55.25746 8957 ft 173 kts 47°
2026-04-14 15:28 -26.87784 -55.24680 8958 ft 175 kts 47°
2026-04-14 15:28 -26.87031 -55.23616 8956 ft 174 kts 48°
2026-04-14 15:28 -26.86281 -55.22557 8954 ft 173 kts 47°
2026-04-14 15:28 -26.85531 -55.21498 8951 ft 173 kts 47°
2026-04-14 15:29 -26.84786 -55.20447 8951 ft 172 kts 47°
2026-04-14 15:29 -26.84048 -55.19406 8953 ft 170 kts 47°
2026-04-14 15:29 -26.83308 -55.18363 8958 ft 172 kts 47°
2026-04-14 15:29 -26.82556 -55.17304 8960 ft 174 kts 46°
2026-04-14 15:30 -26.81814 -55.16257 8957 ft 174 kts 47°
2026-04-14 15:30 -26.81060 -55.15195 8954 ft 174 kts 47°
2026-04-14 15:30 -26.80308 -55.14136 8957 ft 173 kts 46°
2026-04-14 15:30 -26.79561 -55.13083 8955 ft 173 kts 47°
2026-04-14 15:31 -26.78810 -55.12025 8955 ft 173 kts 47°
2026-04-14 15:31 -26.78060 -55.10968 8957 ft 173 kts 47°
2026-04-14 15:31 -26.77310 -55.09913 8959 ft 173 kts 47°
2026-04-14 15:31 -26.76561 -55.08858 8961 ft 173 kts 47°
2026-04-14 15:32 -26.75811 -55.07803 8959 ft 173 kts 47°
2026-04-14 15:32 -26.75068 -55.06758 8954 ft 172 kts 47°
2026-04-14 15:32 -26.74326 -55.05714 8958 ft 171 kts 47°
2026-04-14 15:32 -26.73587 -55.04674 8954 ft 169 kts 47°
2026-04-14 15:33 -26.72850 -55.03640 8960 ft 171 kts 47°
2026-04-14 15:33 -26.72106 -55.02596 8958 ft 172 kts 47°
2026-04-14 15:33 -26.71362 -55.01549 8958 ft 173 kts 48°
2026-04-14 15:33 -26.70612 -55.00496 8956 ft 173 kts 48°
2026-04-14 15:34 -26.69865 -54.99445 8963 ft 172 kts 46°
2026-04-14 15:34 -26.69123 -54.98404 8961 ft 171 kts 47°
2026-04-14 15:34 -26.68378 -54.97359 8962 ft 172 kts 47°
2026-04-14 15:34 -26.67628 -54.96307 8951 ft 174 kts 48°
2026-04-14 15:35 -26.66876 -54.95252 8959 ft 173 kts 47°
2026-04-14 15:35 -26.66123 -54.94194 8960 ft 174 kts 47°
2026-04-14 15:35 -26.65369 -54.93137 8960 ft 174 kts 47°
2026-04-14 15:35 -26.64610 -54.92073 8954 ft 175 kts 47°
2026-04-14 15:36 -26.63867 -54.91031 8959 ft 172 kts 48°
2026-04-14 15:36 -26.63109 -54.89969 8952 ft 173 kts 47°
2026-04-14 15:36 -26.62369 -54.88933 8956 ft 172 kts 48°
2026-04-14 15:36 -26.61622 -54.87887 8956 ft 172 kts 48°
2026-04-14 15:37 -26.60878 -54.86844 8960 ft 171 kts 47°
2026-04-14 15:37 -26.60136 -54.85805 8962 ft 171 kts 47°
2026-04-14 15:37 -26.59391 -54.84763 8959 ft 172 kts 47°
2026-04-14 15:37 -26.58645 -54.83717 8960 ft 172 kts 47°
2026-04-14 15:38 -26.57901 -54.82677 8955 ft 171 kts 48°
2026-04-14 15:38 -26.57075 -54.81727 8967 ft 170 kts 33°
2026-04-14 15:38 -26.56023 -54.81154 8963 ft 168 kts 16°
2026-04-14 15:38 -26.54916 -54.80750 8975 ft 168 kts 16°
2026-04-14 15:39 -26.53807 -54.80335 8964 ft 168 kts 16°
2026-04-14 15:39 -26.52701 -54.79921 8963 ft 168 kts 17°
2026-04-14 15:39 -26.51593 -54.79508 8972 ft 167 kts 16°
2026-04-14 15:39 -26.50483 -54.79094 8967 ft 167 kts 16°
2026-04-14 15:40 -26.49379 -54.78683 8972 ft 168 kts 17°
2026-04-14 15:40 -26.48262 -54.78266 8974 ft 170 kts 16°
2026-04-14 15:40 -26.47158 -54.77855 8972 ft 169 kts 16°
2026-04-14 15:40 -26.46033 -54.77436 8971 ft 171 kts 16°
2026-04-14 15:41 -26.44911 -54.77018 8966 ft 170 kts 16°
2026-04-14 15:41 -26.43794 -54.76603 8971 ft 169 kts 16°
2026-04-14 15:41 -26.42679 -54.76188 8969 ft 169 kts 16°
2026-04-14 15:41 -26.41570 -54.75774 8964 ft 168 kts 16°
2026-04-14 15:42 -26.40462 -54.75362 8955 ft 167 kts 17°
2026-04-14 15:42 -26.39356 -54.74952 8959 ft 167 kts 16°
2026-04-14 15:42 -26.38252 -54.74541 8966 ft 167 kts 16°
2026-04-14 15:42 -26.37147 -54.74130 8962 ft 167 kts 16°
2026-04-14 15:43 -26.36043 -54.73720 8960 ft 167 kts 16°
2026-04-14 15:43 -26.34940 -54.73310 8963 ft 167 kts 16°
2026-04-14 15:43 -26.33832 -54.72898 8962 ft 167 kts 16°
2026-04-14 15:43 -26.32726 -54.72487 8964 ft 168 kts 16°
2026-04-14 15:44 -26.31619 -54.72076 8961 ft 167 kts 17°
2026-04-14 15:44 -26.30530 -54.71672 8961 ft 167 kts 17°
2026-04-14 15:44 -26.29424 -54.71261 8965 ft 168 kts 16°
2026-04-14 15:44 -26.28311 -54.70848 8967 ft 169 kts 16°
2026-04-14 15:45 -26.27197 -54.70434 8964 ft 169 kts 17°
2026-04-14 15:45 -26.26084 -54.70021 8963 ft 169 kts 17°
2026-04-14 15:45 -26.24964 -54.69606 8964 ft 169 kts 17°
2026-04-14 15:45 -26.23843 -54.69190 8964 ft 170 kts 16°
2026-04-14 15:46 -26.22716 -54.68755 8902 ft 173 kts 19°
2026-04-14 15:46 -26.21591 -54.68284 8780 ft 172 kts 18°
2026-04-14 15:46 -26.20476 -54.67831 8655 ft 170 kts 18°
2026-04-14 15:46 -26.19372 -54.67380 8531 ft 168 kts 18°
2026-04-14 15:47 -26.18274 -54.66929 8411 ft 168 kts 18°
2026-04-14 15:47 -26.17182 -54.66479 8288 ft 167 kts 18°
2026-04-14 15:47 -26.16095 -54.66033 8168 ft 166 kts 18°
2026-04-14 15:47 -26.15011 -54.65588 8045 ft 166 kts 18°
2026-04-14 15:48 -26.13943 -54.65149 7922 ft 165 kts 18°
2026-04-14 15:48 -26.12866 -54.64707 7800 ft 164 kts 18°
2026-04-14 15:48 -26.11792 -54.64266 7681 ft 164 kts 18°
2026-04-14 15:48 -26.10720 -54.63826 7562 ft 164 kts 18°
2026-04-14 15:49 -26.09652 -54.63387 7443 ft 164 kts 18°
2026-04-14 15:49 -26.08577 -54.62946 7323 ft 165 kts 18°
2026-04-14 15:49 -26.07576 -54.62536 7213 ft 164 kts 18°
2026-04-14 15:49 -26.06506 -54.62096 7098 ft 164 kts 17°
2026-04-14 15:50 -26.05438 -54.61658 6980 ft 164 kts 18°
2026-04-14 15:50 -26.04362 -54.61218 6864 ft 164 kts 18°
2026-04-14 15:50 -26.03286 -54.60776 6748 ft 165 kts 18°
2026-04-14 15:50 -26.02210 -54.60335 6629 ft 164 kts 18°
2026-04-14 15:51 -26.01142 -54.59898 6520 ft 164 kts 18°
2026-04-14 15:51 -26.00073 -54.59459 6408 ft 164 kts 18°
2026-04-14 15:51 -25.99020 -54.59028 6283 ft 162 kts 18°
2026-04-14 15:51 -25.97956 -54.58593 6162 ft 164 kts 19°
2026-04-14 15:52 -25.96886 -54.58154 6044 ft 164 kts 19°
2026-04-14 15:52 -25.95816 -54.57716 5921 ft 164 kts 18°
2026-04-14 15:52 -25.94742 -54.57277 5796 ft 164 kts 18°
2026-04-14 15:52 -25.93679 -54.56842 5684 ft 163 kts 19°
2026-04-14 15:53 -25.92608 -54.56403 5563 ft 164 kts 19°
2026-04-14 15:53 -25.91535 -54.55964 5438 ft 163 kts 19°
2026-04-14 15:53 -25.90482 -54.55534 5327 ft 163 kts 19°
2026-04-14 15:53 -25.89414 -54.55097 5199 ft 164 kts 19°
2026-04-14 15:54 -25.87299 -54.54232 4962 ft 162 kts 19°
2026-04-14 15:54 -25.86252 -54.53804 4844 ft 159 kts 20°
2026-04-14 15:54 -25.85224 -54.53383 4724 ft 155 kts 20°
2026-04-14 15:55 -25.84218 -54.52972 4591 ft 153 kts 19°
2026-04-14 15:55 -25.83225 -54.52566 4471 ft 151 kts 19°
2026-04-14 15:55 -25.82234 -54.52162 4348 ft 154 kts 20°
2026-04-14 15:55 -25.81235 -54.51754 4226 ft 152 kts 21°
2026-04-14 15:56 -25.80241 -54.51347 4116 ft 149 kts 20°
2026-04-14 15:56 -25.79345 -54.50978 3978 ft 127 kts 21°
2026-04-14 15:56 -25.78575 -54.50655 3742 ft 114 kts 21°
2026-04-14 15:56 -25.77897 -54.50367 3589 ft 101 kts 22°
2026-04-14 15:57 -25.77229 -54.50088 3425 ft 102 kts 20°
2026-04-14 15:57 -25.76611 -54.49752 3300 ft 96 kts 36°
2026-04-14 15:57 -25.76066 -54.49325 3173 ft 96 kts 36°
2026-04-14 15:57 -25.75503 -54.48943 3053 ft 95 kts 29°
2026-04-14 15:58 -25.74929 -54.48612 2953 ft 90 kts 31°
2026-04-14 15:58 -25.74432 -54.48222 2857 ft 85 kts 32°
2026-04-14 15:58 -25.73954 -54.47876 2721 ft 82 kts 32°
2026-04-14 15:58 -25.73454 -54.47492 2576 ft 96 kts 31°
2026-04-14 15:59 -25.72863 -54.47053 2459 ft 108 kts 32°
2026-04-14 15:59 -25.72220 -54.46597 2345 ft 111 kts 31°
2026-04-14 15:59 -25.71556 -54.46136 2231 ft 115 kts 18°
2026-04-14 15:59 -25.70770 -54.46080 2189 ft 113 kts
2026-04-14 16:00 -25.69996 -54.46056 2187 ft 110 kts
2026-04-14 16:00 -25.69235 -54.46024 2185 ft 108 kts
2026-04-14 16:00 -25.68532 -54.45855 2190 ft 101 kts 19°
2026-04-14 16:00 -25.67972 -54.45416 2194 ft 102 kts 45°
2026-04-14 16:01 -25.67723 -54.44955 2185 ft 106 kts 68°
2026-04-14 16:01 -25.67627 -54.44150 2192 ft 112 kts 103°
2026-04-14 16:01 -25.68050 -54.43411 2184 ft 116 kts 130°
2026-04-14 16:01 -25.69082 -54.43070 2196 ft 119 kts 165°
2026-04-14 16:02 -25.69904 -54.42922 2195 ft 120 kts 165°
2026-04-14 16:02 -25.70737 -54.42759 2191 ft 122 kts 163°
2026-04-14 16:02 -25.71299 -54.42626 2198 ft 121 kts 162°
2026-04-14 16:02 -25.72120 -54.42505 2244 ft 116 kts 173°
2026-04-14 16:03 -25.72888 -54.42463 2207 ft 105 kts 179°
2026-04-14 16:03 -25.73607 -54.42571 2159 ft 106 kts 190°
2026-04-14 16:03 -25.74306 -54.42816 2090 ft 98 kts 202°
2026-04-14 16:03 -25.74846 -54.43253 1934 ft 100 kts 233°
2026-04-14 16:04 -25.75131 -54.43965 1654 ft 97 kts 275°
2026-04-14 16:04 -25.74919 -54.44638 1428 ft 93 kts 308°
2026-04-14 16:04 -25.74604 -54.45254 1209 ft 83 kts 301°
2026-04-14 16:04 -25.74390 -54.45765 994 ft 64 kts 301°
2026-04-14 16:05 -25.74237 -54.46130 920 ft 38 kts 296°
2026-04-14 16:05 -25.74150 -54.46339 922 ft 23 kts 297°
2026-04-14 16:05 -25.74085 -54.46496 921 ft 23 kts 293°
2026-04-14 16:05 -25.74015 -54.46656 923 ft 23 kts 294°
2026-04-14 16:06 -25.73942 -54.46821 925 ft 24 kts 292°
2026-04-14 16:06 -25.73869 -54.47002 925 ft 27 kts 295°
2026-04-14 16:06 -25.73795 -54.47178 924 ft 23 kts 300°
2026-04-14 16:06 -25.73699 -54.47295 925 ft 18 kts 323°
2026-04-14 16:07 -25.73610 -54.47366 922 ft 14 kts 324°
2026-04-14 16:07 -25.73541 -54.47419 921 ft 10 kts 326°
2026-04-14 16:07 -25.73468 -54.47476 924 ft 17 kts 324°
2026-04-14 16:07 -25.73390 -54.47540 922 ft 7 kts 324°
2026-04-14 16:08 -25.73338 -54.47580 922 ft 9 kts 324°
2026-04-14 16:08 -25.73302 -54.47621 923 ft 8 kts 297°
2026-04-14 16:08 -25.73280 -54.47680 923 ft 9 kts 294°
2026-04-14 16:08 -25.73250 -54.47742 923 ft 9 kts 292°
2026-04-14 16:09 -25.73232 -54.47784 923 ft 6 kts 297°
2026-04-14 16:09 -25.73201 -54.47784 922 ft 5 kts 26°
2026-04-14 16:09 -25.73177 -54.47771 922 ft 1 kts 25°
2026-04-14 16:09 -25.73176 -54.47771 922 ft 0 kts 25°